IZ2NAI-3 Weather Reports


Display with metric or nautical units.
time (UTC)temp
F
wind
direction
speed
MPH
gust
MPH
rain 1hr
in
rain 24hr
in
rain mn
in
humidity
%
barometer
mb
20260506143505 71 114 4.0 8.0 0.00 0.19 0.19 74 1008.2
20260506142505 70 105 8.0 15.0 0.00 0.19 0.19 78 1008.1
20260506142005 69 91 9.0 15.0 0.00 0.19 0.19 81 1008.2
20260506141506 69 90 9.0 13.0 0.00 0.19 0.19 83 1008.2
20260506140505 70 89 8.0 13.0 0.00 0.19 0.19 85 1008.4
20260506140005 69 90 9.0 13.0 0.00 0.19 0.19 83 1008.6
20260506135506 69 99 8.0 12.0 0.00 0.19 0.19 83 1008.5
20260506135006 69 100 9.0 14.0 0.00 0.19 0.19 85 1008.7
20260506134506 69 95 10.0 14.0 0.00 0.19 0.19 85 1008.7
20260506134005 68 92 10.0 14.0 0.00 0.19 0.19 85 1008.7
20260506133505 68 99 10.0 14.0 0.00 0.19 0.19 85 1008.8
20260506133005 69 100 10.0 15.0 0.00 0.19 0.19 86 1008.8
20260506132505 69 100 11.0 15.0 0.00 0.19 0.19 87 1008.9
20260506132005 69 105 11.0 17.0 0.00 0.19 0.19 87 1008.9
20260506131505 69 103 10.0 17.0 0.00 0.19 0.19 87 1009.0
20260506131005 69 105 10.0 15.0 0.00 0.19 0.19 86 1008.9
20260506130005 68 104 10.0 14.0 0.00 0.19 0.19 85 1008.9
20260506125506 68 103 9.0 14.0 0.00 0.19 0.19 85 1009.0
20260506125005 68 101 10.0 17.0 0.00 0.19 0.19 88 1009.1
20260506124005 67 99 11.0 15.0 0.00 0.19 0.19 88 1009.0
20260506123505 67 92 12.0 17.0 0.00 0.19 0.19 89 1008.9
20260506123005 66 96 14.0 20.0 0.02 0.19 0.19 90 1009.0
20260506122505 66 101 15.0 20.0 0.06 0.19 0.19 91 1009.0
20260506122005 66 99 16.0 21.0 0.07 0.19 0.19 92 1009.0
20260506121505 65 98 16.0 21.0 0.09 0.19 0.19 91 1008.9
20260506121005 66 98 16.0 20.0 0.10 0.19 0.19 93 1008.9
20260506120505 65 101 15.0 20.0 0.10 0.19 0.19 93 1008.9
20260506120005 64 101 15.0 19.0 0.10 0.19 0.19 93 1008.9
20260506115506 64 94 16.0 21.0 0.10 0.19 0.19 93 1008.8
20260506115006 63 90 18.0 25.0 0.10 0.19 0.19 93 1008.9
20260506114505 63 90 21.0 29.0 0.10 0.19 0.19 93 1008.7
20260506114005 63 88 22.0 29.0 0.10 0.19 0.19 93 1008.7
20260506113005 63 104 14.0 25.0 0.07 0.16 0.16 92 1009.1
20260506112006 63 87 11.0 16.0 0.03 0.12 0.12 91 1009.7
20260506111006 63 80 6.0 10.0 0.00 0.09 0.09 91 1010.0
20260506110005 63 87 9.0 13.0 0.00 0.09 0.09 91 1010.0
20260506105505 63 89 11.0 15.0 0.00 0.09 0.09 91 1010.0
20260506105005 63 88 12.0 16.0 0.00 0.09 0.09 90 1010.0
20260506104505 63 91 13.0 18.0 0.00 0.09 0.09 90 1009.9
20260506104005 63 90 13.0 18.0 0.00 0.09 0.09 90 1009.8
20260506103505 63 90 12.0 16.0 0.00 0.09 0.09 89 1009.8
20260506103006 63 93 13.0 16.0 0.00 0.09 0.09 89 1009.8
20260506102505 63 96 13.0 17.0 0.00 0.09 0.09 88 1010.0
20260506102005 63 102 13.0 18.0 0.00 0.09 0.09 88 1010.1
20260506101505 64 102 13.0 18.0 0.00 0.09 0.09 88 1010.2
20260506100505 64 99 13.0 17.0 0.00 0.09 0.09 88 1010.1
20260506100005 63 93 13.0 17.0 0.00 0.09 0.09 88 1010.0
20260506095505 63 91 13.0 17.0 0.00 0.09 0.09 89 1010.0
20260506095005 63 97 12.0 17.0 0.00 0.09 0.09 89 1010.1
20260506094505 63 95 13.0 17.0 0.00 0.09 0.09 89 1010.1
20260506094005 63 90 13.0 17.0 0.00 0.09 0.09 90 1010.0
20260506093506 63 94 13.0 19.0 0.00 0.09 0.09 90 1010.1
20260506093005 63 98 13.0 19.0 0.00 0.09 0.09 90 1010.1
20260506092005 63 87 13.0 16.0 0.00 0.09 0.09 90 1010.0
20260506091506 62 83 13.0 16.0 0.00 0.09 0.09 90 1010.0
20260506091006 63 81 13.0 17.0 0.00 0.09 0.09 90 1010.0
20260506090505 63 81 12.0 17.0 0.00 0.09 0.09 90 1009.9
20260506090005 63 83 11.0 15.0 0.00 0.09 0.09 91 1009.9
20260506085006 62 87 11.0 17.0 0.00 0.11 0.09 91 1010.0
20260506084506 62 84 11.0 14.0 0.00 0.12 0.09 91 1010.0
20260506084006 62 83 11.0 14.0 0.00 0.13 0.09 91 1010.0
20260506083006 62 81 11.0 14.0 0.00 0.15 0.09 92 1009.9
20260506082505 61 88 10.0 14.0 0.00 0.16 0.09 92 1009.7
20260506082005 61 92 9.0 13.0 0.00 0.17 0.09 92 1009.9
20260506081005 61 90 11.0 13.0 0.00 0.18 0.09 92 1010.1
20260506073505 61 98 12.0 15.0 0.00 0.27 0.09 92 1009.8
20260506073006 61 99 12.0 16.0 0.00 0.28 0.09 93 1009.8
20260506072505 61 95 12.0 16.0 0.00 0.29 0.09 93 1009.8
20260506071506 61 85 11.0 16.0 0.00 0.31 0.09 94 1009.8
20260506071006 61 81 10.0 16.0 0.00 0.31 0.09 94 1009.8
20260506062505 59 92 9.0 12.0 0.00 0.33 0.09 95 1010.1
20260506062005 60 91 9.0 12.0 0.00 0.33 0.09 95 1010.1
20260506061505 59 90 8.0 11.0 0.01 0.33 0.09 95 1010.1
20260506060505 59 90 7.0 9.0 0.01 0.33 0.09 95 1010.3
20260506050505 58 97 9.0 13.0 0.03 0.32 0.08 95 1010.6
20260506045006 58 92 7.0 10.0 0.03 0.31 0.07 95 1010.8
20260506043505 58 94 5.0 9.0 0.03 0.31 0.06 95 1010.7
20260506043006 58 92 5.0 9.0 0.04 0.31 0.06 95 1010.7
20260506042506 58 86 5.0 8.0 0.03 0.30 0.06 95 1010.6
20260506042005 58 88 7.0 9.0 0.03 0.30 0.06 95 1010.4
20260506041505 58 94 8.0 11.0 0.03 0.30 0.06 95 1010.4
20260506041005 58 97 9.0 12.0 0.03 0.29 0.05 95 1010.3
20260506040506 58 98 9.0 12.0 0.03 0.29 0.05 95 1010.3
20260506040005 58 100 8.0 11.0 0.03 0.29 0.05 95 1010.3
20260506035505 58 105 6.0 11.0 0.03 0.29 0.05 95 1010.2
20260506035005 57 113 5.0 9.0 0.02 0.28 0.04 95 1010.3
20260506034505 57 122 4.0 9.0 0.02 0.28 0.04 95 1010.5
20260506034005 57 115 5.0 8.0 0.02 0.28 0.03 95 1010.5
20260506033505 57 105 6.0 9.0 0.02 0.28 0.03 95 1010.4
20260506033006 57 101 7.0 11.0 0.02 0.27 0.02 95 1010.3
20260506032505 57 95 9.0 11.0 0.02 0.27 0.02 95 1010.3
20260506032005 57 91 8.0 11.0 0.02 0.27 0.02 95 1010.2
20260506031505 57 90 6.0 11.0 0.02 0.27 0.02 95 1010.3
20260506031005 57 84 4.0 10.0 0.01 0.26 0.02 95 1010.3
20260506030506 57 81 6.0 10.0 0.01 0.26 0.02 95 1010.5
20260506030005 57 77 8.0 10.0 0.01 0.26 0.02 95 1010.4
20260506025506 57 69 7.0 10.0 0.01 0.26 0.02 95 1010.2
20260506025005 57 58 7.0 10.0 0.01 0.26 0.02 95 1010.4
20260506024506 57 44 6.0 10.0 0.01 0.26 0.02 95 1010.6
20260506024005 57 52 6.0 10.0 0.01 0.26 0.02 95 1010.5
20260506023505 57 77 6.0 9.0 0.00 0.25 0.01 95 1010.8
20260506023006 57 97 5.0 9.0 0.00 0.25 0.01 95 1011.1
20260506022505 56 114 4.0 9.0 0.00 0.25 0.01 95 1011.4
20260506021505 56 103 4.0 8.0 0.00 0.25 0.01 95 1011.4
20260506021005 56 98 5.0 9.0 0.00 0.25 0.01 95 1011.3
20260506020005 56 96 4.0 8.0 0.00 0.25 0.01 94 1011.3
20260506015005 56 101 4.0 7.0 0.00 0.25 0.01 94 1011.3
20260506014505 56 105 3.0 5.0 0.00 0.25 0.01 94 1011.4
20260506014005 56 107 2.0 4.0 0.00 0.25 0.01 94 1011.5
20260506013005 55 128 2.0 3.0 0.00 0.25 0.01 94 1011.6
20260506012006 55 127 1.0 5.0 0.00 0.25 0.01 94 1011.6
20260506011506 55 161 1.0 3.0 0.00 0.25 0.01 94 1011.6
20260506011005 55 163 1.0 4.0 0.00 0.25 0.01 94 1011.7
20260506010505 55 181 1.0 4.0 0.00 0.25 0.01 94 1011.7
20260506010005 55 189 2.0 4.0 0.00 0.25 0.01 94 1011.8
20260506005505 55 188 3.0 6.0 0.00 0.25 0.01 94 1011.9
20260506005005 55 192 2.0 6.0 0.00 0.25 0.01 94 1011.9
20260506004506 55 224 0.0 3.0 0.00 0.25 0.01 94 1011.9
20260506003505 55 284 1.0 3.0 0.00 0.25 0.01 94 1011.5
20260506003005 55 267 0.0 3.0 0.00 0.25 0.01 94 1011.6
20260506002505 55 211 0.0 2.0 0.00 0.25 0.01 94 1011.7
20260506001505 55 181 2.0 7.0 0.00 0.25 0.01 94 1011.9
20260506001006 55 162 3.0 8.0 0.00 0.25 0.01 94 1012.1
20260506000006 55 72 4.0 5.0 0.00 0.25 0.01 94 1012.1
20260505235505 55 58 4.0 6.0 0.00 0.25 0.01 94 1012.0
20260505235005 55 54 4.0 6.0 0.00 0.25 0.01 94 1011.9
20260505234005 55 65 4.0 5.0 0.00 0.25 0.01 94 1012.1
20260505233005 55 57 3.0 5.0 0.00 0.25 0.01 94 1012.1
20260505232005 55 64 3.0 4.0 0.01 0.25 0.01 94 1012.3
20260505231505 55 56 3.0 4.0 0.01 0.25 0.01 94 1012.3
20260505231005 55 67 4.0 6.0 0.01 0.25 0.01 94 1012.4
20260505230006 56 73 5.0 8.0 0.01 0.25 0.01 94 1012.3
20260505225006 55 72 4.0 6.0 0.01 0.25 0.01 94 1012.3
20260505224505 55 73 4.0 6.0 0.01 0.25 0.01 94 1012.3
20260505224005 55 69 4.0 8.0 0.01 0.25 0.01 94 1012.5
20260505223505 55 71 4.0 8.0 0.01 0.25 0.01 94 1012.4
20260505223005 55 76 4.0 8.0 0.01 0.25 0.01 94 1012.4
20260505222506 56 70 4.0 6.0 0.01 0.25 0.01 94 1012.5
20260505222006 55 64 5.0 8.0 0.00 0.24 0.00 94 1012.4
20260505221505 55 64 5.0 8.0 0.00 0.24 0.00 94 1012.4
20260505221006 55 61 4.0 6.0 0.00 0.24 0.00 93 1012.4
20260505220505 55 56 4.0 8.0 0.00 0.24 0.00 94 1012.5
20260505220008 55 57 5.0 8.0 0.00 0.24 0.00 93 1012.5
20260505215505 56 62 5.0 6.0 0.00 0.24 0.24 93 1012.5
20260505215006 56 63 5.0 8.0 0.00 0.24 0.24 93 1012.6
20260505214005 56 62 4.0 6.0 0.00 0.24 0.24 93 1012.9
20260505213505 56 62 4.0 5.0 0.00 0.24 0.24 93 1012.9
20260505212505 56 65 4.0 6.0 0.00 0.24 0.24 93 1013.0
20260505211005 56 65 4.0 7.0 0.00 0.24 0.24 93 1013.1
20260505210505 56 64 5.0 9.0 0.00 0.24 0.24 93 1013.1
20260505205006 57 71 4.0 6.0 0.00 0.24 0.24 93 1013.1
20260505204505 57 67 5.0 8.0 0.00 0.24 0.24 93 1013.1
20260505204006 57 57 5.0 9.0 0.00 0.24 0.24 93 1013.0
20260505203506 57 56 5.0 9.0 0.00 0.24 0.24 93 1013.0
20260505202505 57 58 5.0 9.0 0.00 0.24 0.24 93 1013.1
20260505202006 57 60 5.0 8.0 0.00 0.24 0.24 92 1013.0
20260505201506 58 60 6.0 9.0 0.00 0.24 0.24 92 1013.1
20260505200505 58 54 5.0 9.0 0.00 0.24 0.24 92 1013.1
20260505200005 58 55 5.0 9.0 0.00 0.24 0.24 92 1013.1
20260505195506 58 60 5.0 9.0 0.00 0.24 0.24 92 1013.1
20260505195006 58 65 6.0 9.0 0.00 0.24 0.24 92 1013.1
20260505194505 58 62 6.0 11.0 0.00 0.24 0.24 92 1013.0
20260505193505 58 53 5.0 11.0 0.00 0.24 0.24 92 1012.9
20260505193006 58 50 6.0 11.0 0.00 0.24 0.24 92 1012.9
20260505192005 58 58 7.0 10.0 0.00 0.24 0.24 91 1012.8
20260505191505 58 56 6.0 10.0 0.00 0.24 0.24 91 1012.8
20260505191006 58 49 5.0 9.0 0.00 0.24 0.24 91 1012.8
20260505190506 58 45 6.0 11.0 0.00 0.24 0.24 91 1012.7
20260505190005 59 47 7.0 11.0 0.00 0.24 0.24 91 1012.6
20260505185505 59 51 7.0 11.0 0.00 0.24 0.24 91 1012.7
20260505185006 59 50 7.0 12.0 0.00 0.24 0.24 90 1012.6
20260505184505 59 48 7.0 12.0 0.00 0.24 0.24 90 1012.5
20260505184005 59 49 6.0 10.0 0.00 0.24 0.24 90 1012.7
20260505183505 59 48 6.0 9.0 0.00 0.24 0.24 89 1012.7
20260505182506 60 54 6.0 10.0 0.00 0.24 0.24 89 1012.8
20260505182005 60 54 7.0 10.0 0.00 0.24 0.24 89 1012.7
20260505181505 60 54 8.0 12.0 0.00 0.24 0.24 89 1012.6
20260505181006 60 54 8.0 12.0 0.00 0.24 0.24 88 1012.6
20260505180506 60 52 7.0 12.0 0.00 0.24 0.24 88 1012.5
20260505180005 60 50 6.0 11.0 0.00 0.24 0.24 88 1012.5
20260505175505 60 53 8.0 11.0 0.00 0.24 0.24 88 1012.2
20260505175006 60 56 8.0 11.0 0.00 0.24 0.24 88 1012.2
20260505174006 61 54 9.0 13.0 0.00 0.24 0.24 87 1012.1
20260505173505 61 54 9.0 13.0 0.00 0.24 0.24 87 1012.1
20260505173005 61 50 9.0 13.0 0.00 0.24 0.24 86 1012.1
20260505171506 62 52 9.0 13.0 0.00 0.24 0.24 86 1012.1
20260505170505 62 52 9.0 12.0 0.00 0.24 0.24 85 1012.2
20260505170005 62 47 9.0 14.0 0.00 0.24 0.24 85 1012.3
20260505165506 62 49 8.0 14.0 0.00 0.24 0.24 85 1012.2
20260505165006 62 54 8.0 14.0 0.00 0.24 0.24 85 1012.2
20260505164506 63 53 8.0 11.0 0.00 0.24 0.24 85 1012.2
20260505164006 63 48 8.0 11.0 0.00 0.24 0.24 85 1012.2
20260505163505 63 44 8.0 12.0 0.00 0.24 0.24 85 1012.3
20260505163006 62 44 9.0 14.0 0.00 0.24 0.24 85 1012.3
20260505162505 63 42 10.0 14.0 0.00 0.24 0.24 84 1012.2
20260505162005 63 36 9.0 14.0 0.00 0.24 0.24 84 1012.3
20260505161505 63 45 9.0 13.0 0.00 0.24 0.24 83 1012.3
20260505161005 63 52 9.0 13.0 0.00 0.24 0.24 83 1012.4
20260505160505 64 48 8.0 13.0 0.00 0.24 0.24 83 1012.3
20260505153006 64 68 11.0 14.0 0.00 0.24 0.24 82 1012.5
20260505152005 64 64 10.0 14.0 0.00 0.24 0.24 82 1012.6
20260505151505 64 64 10.0 14.0 0.00 0.24 0.24 83 1012.5
20260505151005 64 60 11.0 16.0 0.00 0.24 0.24 82 1012.4
20260505150506 64 60 11.0 16.0 0.00 0.24 0.24 83 1012.5